Temperature
13 13 13 13 13 13 13 13 13 13 13 13 13 13 13 13 13 13 13 13 13 13 13 13 13 13 13 13 13 13 13 13 13 13 12 12 12 12 12 12 12 12 12
13 13 13 13 13 13 12 12 12 12 12 12 12 12 12 12 12 13 13 13 13 13 13 13 12 12 13 13 13 13 13 13 13 13 12 12 12 12 12 12 12 12 12
12 12 12 12 12 12 12 12 12 12 12 12 12 12 12 12 12 12 12 12 12 12 12 12 12 12 12 12 12 12 12 12 12 12 12 12 12 12 12 12 12 12 12
12 12 12 12 12 12 12 12 12 12 12 12 12 12 12 12 12 12 12 12 12 12 12 12 12 12 12 12 12 12 12 12 12 12 12 12 12 12 12 12 11 11 11
12 12 12 11 11 11 11 11 11 11 11 11 11 11 11 12 12 11 11 11 11 11 11 11 11 11 11 11 11 11 11 11 11 11 11 11 11 11 11 11 11 11 11
11 11 11 11 11 11 11 11 11 11 11 11 11 11 11 11 11 11 11 11 11 11 11 11 11 11 11 11 11 11 11 11 11 11 11 11 11 11 11 11 11 11 10
11 11 11 11 11 11 11 10 10 10 10 10 10 10 10 10 10 10 10 10 10 10 10 10 10 10 10 10 10 10 10 10 10 10 10 10 10 10 10 10 10 10 10
10 10 10 10 10 10 10 10 10 10 10 9 9 9 9 9 10 10 10 10 10 10 10 10 10 10 10 10 10 10 10 10 10 10 10 10 10 10 10 10 10 10 10
10 10 10 10 10 10 10 10 9 9 9 9 9 8 8 8 9 9 9 9 9 9 9 9 9 9 9 9 9 9 9 9 9 10 9 9 9 9 9 9 9 9 9
9 9 9 9 9 9 9 9 9 9 8 9 8 8 8 8 8 8 8 9 9 9 9 9 9 9 9 9 9 9 9 9 9 9 9 9 9 9 9 9 9 9 9
9 9 9 9 9 9 9 9 8 8 8 8 8 8 8 8 7 7 7 8 8 8 8 8 8 8 8 8 8 8 8 8 8 9 8 8 8 8 8 8 8 8 8
9 8 8 8 8 8 8 8 8 8 8 8 8 7 7 7 7 7 7 7 7 8 8 8 8 8 8 8 8 8 8 8 8 8 8 8 8 8 8 8 8 8 8
8 8 8 8 8 8 8 8 7 7 7 7 7 7 7 7 7 7 6 6 7 7 7 7 7 7 7 7 7 7 7 7 7 7 7 7 7 7 7 7 7 7 7
8 8 8 8 8 7 7 7 7 7 7 7 7 7 7 7 7 6 6 6 6 6 6 7 7 7 7 7 7 7 7 7 7 7 7 6 7 7 7 7 7 6 6
8 8 7 7 7 7 7 7 7 7 7 7 7 7 7 7 6 6 6 6 5 5 5 6 6 6 6 6 6 6 6 6 6 6 6 6 6 6 6 6 6 6 6
7 7 7 7 7 7 7 7 7 7 7 7 7 6 6 6 6 6 6 5 5 5 5 5 5 5 6 6 6 6 6 6 6 5 5 5 5 5 5 5 5 5 5
7 7 6 6 6 6 6 6 6 6 6 6 6 6 6 6 6 5 5 5 5 5 4 5 5 5 5 5 5 5 5 5 5 5 5 5 5 5 5 5 5 5 5
6 6 6 6 6 6 6 6 6 6 6 6 6 5 5 5 5 5 5 5 5 4 4 4 4 4 4 4 4 5 5 5 5 4 4 4 4 4 4 4 4 4 4
6 5 5 5 5 5 5 5 5 5 5 5 5 5 5 5 4 4 4 4 4 4 4 3 4 4 4 4 4 4 4 4 4 4 4 4 4 4 4 3 3 3 3
5 5 5 5 5 5 5 5 5 5 5 5 5 4 4 4 4 4 4 4 3 3 3 3 3 3 3 3 3 3 3 3 3 3 3 3 3 3 3 3 3 3 3
5 5 5 5 4 4 4 4 4 4 4 4 4 4 4 4 3 3 3 3 3 2 2 2 2 2 2 2 2 2 2 3 3 3 3 3 2 2 2 2 2 2 2
5 5 4 4 4 4 4 4 4 4 4 3 3 3 3 3 3 3 2 2 2 2 2 2 2 2 2 2 2 1 1 2 2 2 2 2 2 2 2 2 2 2 2
4 4 4 4 4 4 4 3 3 3 3 3 3 3 3 3 2 2 2 2 2 2 1 1 1 1 1 1 1 1 1 1 1 1 1 2 2 2 2 1 1 1 1
4 4 4 4 4 4 3 3 3 3 3 2 2 2 2 2 2 2 2 1 1 1 1 1 1 1 1 1 1 0 0 0 0 1 0 0 1 1 1 1 1 1 1
4 3 3 3 3 3 3 3 2 2 2 2 2 2 2 2 1 1 1 1 1 1 1 1 1 1 0 0 -0 -0 -0 -0 -0 0 -0 -1 -0 0 1 1 1 0 0
3 3 3 3 3 3 2 2 2 2 2 2 2 1 1 1 1 1 1 0 0 1 0 0 0 0 -0 -0 -1 -1 -1 -1 -1 -1 -1 -1 -1 -1 -1 0 0 0 -0
Wind_Speed
1 1 1 1 2 2 1 1 1 2 2 2 2 2 2 3 4 4 5 7 8 9 9 10 10 10 10 9 10 9 10 10 10 10 9 9 8 8 7 7 7 6 7
1 1 0 0 1 1 2 1 2 2 2 2 2 2 3 4 4 4 5 6 7 8 9 9 9 9 9 9 9 9 9 9 9 10 9 9 9 9 8 8 8 8 8
2 0 1 0 1 2 2 1 2 1 1 1 2 3 2 3 3 4 5 5 5 6 6 7 7 7 7 8 8 8 8 8 8 8 8 8 9 10 10 9 9 9 8
3 1 1 0 2 1 1 1 1 1 2 2 2 3 2 2 3 3 3 3 3 4 5 5 5 5 5 6 7 8 8 8 9 9 9 9 9 9 9 9 9 9 9
3 3 1 1 1 1 1 1 1 1 2 2 3 3 2 2 2 2 1 2 2 2 2 3 3 4 4 5 6 7 8 8 9 9 10 10 10 9 10 9 10 10 10
3 3 2 2 2 1 1 1 1 1 1 2 3 3 3 2 2 1 1 1 1 1 1 2 2 3 4 4 5 6 7 7 8 8 9 10 10 10 10 10 10 10 11
3 3 2 2 2 1 1 1 1 1 1 1 1 2 3 2 1 1 1 0 1 1 1 1 1 1 3 4 4 6 6 5 5 6 7 8 9 10 11 11 11 11 11
3 2 2 1 2 1 2 1 1 1 1 1 0 1 2 3 2 1 1 1 1 1 1 1 1 1 2 2 3 4 5 5 5 6 6 7 8 9 10 11 12 12 11
3 2 2 1 2 1 2 2 1 1 2 1 0 1 1 2 3 2 1 1 1 1 1 1 1 2 2 2 3 4 5 5 6 6 6 6 8 9 9 10 11 11 10
3 3 2 2 2 1 2 3 1 2 2 2 1 1 2 1 1 2 2 1 1 1 1 1 1 2 2 2 3 4 5 6 6 7 7 7 8 9 10 9 8 9 9
3 3 2 2 2 1 2 3 3 2 1 2 1 1 2 2 2 2 4 3 2 2 1 1 1 1 1 2 3 4 5 6 6 6 6 7 7 8 9 9 9 9 9
2 3 2 2 2 2 2 2 2 2 2 2 2 2 2 2 2 2 4 4 3 2 2 1 1 1 1 2 3 4 5 6 6 7 7 7 7 7 8 9 9 9 9
2 3 2 2 2 2 2 2 2 2 2 2 2 2 2 2 2 2 3 4 3 3 2 1 1 1 1 2 3 4 5 5 6 7 7 7 7 7 7 8 9 9 9
3 3 3 2 2 2 2 2 2 2 2 2 2 2 2 2 2 2 2 2 3 3 2 2 1 1 1 2 4 4 4 5 5 6 6 7 7 7 7 7 8 9 9
3 3 3 3 2 2 2 2 2 2 2 2 2 2 2 2 2 2 2 3 3 3 4 2 1 1 2 2 4 3 4 5 6 6 6 6 6 6 6 7 7 8 8
3 3 3 3 3 2 2 2 2 2 2 2 2 2 2 2 2 2 2 2 2 3 4 2 2 2 2 2 4 4 4 5 6 6 6 6 6 6 6 6 7 8 8
4 4 4 3 3 3 3 2 3 2 2 2 2 2 3 2 2 2 2 2 2 2 5 3 2 2 2 2 3 4 4 4 5 6 6 6 7 6 5 6 7 7 8
4 4 4 4 4 4 3 3 4 3 3 3 3 3 3 2 3 2 2 2 3 3 3 5 3 2 3 2 2 2 3 4 4 6 6 6 6 5 5 6 7 7 8
4 4 4 4 5 4 4 4 4 4 4 4 4 4 4 3 4 3 3 3 3 3 3 3 3 2 2 2 2 2 3 3 4 5 6 5 5 6 6 7 7 7 7
4 4 5 5 5 5 5 5 4 4 4 4 4 4 4 5 5 4 4 4 3 3 2 3 3 2 2 2 1 2 3 2 3 4 4 5 6 7 7 7 7 7 7
5 5 5 5 5 5 5 5 5 5 5 5 4 4 5 6 6 6 5 4 4 3 3 3 3 2 2 1 2 1 3 3 3 1 2 3 4 4 5 7 7 7 7
5 5 5 5 6 6 7 9 7 6 5 5 5 5 5 5 7 8 8 7 6 5 5 4 4 4 4 3 2 2 2 2 3 1 2 4 2 3 4 5 6 7 8
5 5 6 6 6 8 9 10 10 6 6 6 6 5 5 5 6 4 6 7 6 8 7 5 5 5 4 4 3 3 3 3 4 3 2 4 2 3 4 6 7 7 8
5 6 6 6 6 8 10 10 10 7 6 7 7 7 6 6 6 5 5 4 4 5 5 5 5 5 4 4 4 4 3 3 3 3 1 3 2 3 4 5 6 6 7
6 6 6 7 7 8 10 10 9 5 6 7 7 7 7 7 9 8 5 5 5 5 5 5 5 5 5 4 3 2 1 2 3 2 1 2 2 3 3 3 4 6 8
6 6 7 7 7 8 10 11 10 5 6 6 5 6 10 10 10 10 6 6 7 6 3 3 3 3 2 2 3 3 3 3 2 2 1 1 1 2 3 2 2 4 6
Wind_Direction
127 73 29 25 7 3 355 333 328 313 315 312 301 281 275 266 259 255 259 258 257 260 259 257 256 253 251 246 245 241 239 238 240 240 238 237 236 239 244 250 256 264 268
94 135 212 355 341 333 322 299 289 281 283 290 294 287 273 268 261 262 264 263 259 260 263 264 263 261 258 253 250 249 247 244 243 244 244 245 244 242 244 247 249 258 266
74 93 155 256 301 310 316 314 307 292 285 296 297 292 274 267 267 264 267 266 264 266 267 267 267 262 262 259 256 252 250 249 247 246 245 249 252 253 251 253 255 259 263
68 60 85 307 318 332 332 272 266 284 287 295 296 291 283 270 264 260 262 267 269 269 272 271 265 265 267 269 266 261 258 256 254 254 251 253 258 256 255 259 257 259 262
53 59 44 5 335 331 316 299 300 266 276 297 290 288 287 278 264 257 254 264 268 263 269 276 278 278 277 279 276 270 269 268 264 263 262 261 261 260 259 258 260 260 262
33 46 47 15 1 316 309 309 286 287 269 290 297 300 290 279 270 262 257 266 283 277 286 288 300 296 290 286 293 290 285 282 273 272 270 266 265 264 262 259 260 263 263
20 37 25 18 356 319 285 274 277 284 290 321 319 311 307 300 311 308 292 331 331 338 0 339 303 299 296 293 304 307 298 294 287 286 283 278 272 270 263 261 263 265 265
16 25 22 3 341 328 336 317 276 263 273 357 344 318 317 322 322 305 334 331 328 9 359 355 357 341 311 302 304 305 301 302 296 292 293 294 295 289 277 268 267 267 266
13 21 12 7 341 330 317 311 296 248 262 263 209 205 259 270 304 306 307 324 327 334 327 358 14 354 333 316 316 312 303 299 299 300 300 298 296 297 289 278 273 272 272
2 11 10 10 358 340 318 304 298 265 243 259 267 254 244 245 264 300 307 307 318 310 294 318 343 333 322 314 318 326 319 304 294 295 300 301 300 300 295 287 287 286 284
344 353 357 357 354 333 316 318 319 302 254 240 244 254 257 271 254 256 285 301 313 292 271 250 237 301 304 314 324 328 327 324 317 310 307 307 313 317 315 306 297 296 294
318 326 330 334 321 311 303 297 300 302 290 264 251 238 238 244 248 246 266 281 283 285 287 256 230 242 288 309 313 319 321 325 321 320 318 316 319 323 325 323 315 306 302
287 294 307 303 302 304 294 286 286 289 278 266 258 251 246 250 258 255 260 274 276 278 280 279 250 239 299 315 313 311 316 322 320 318 318 319 323 325 326 327 325 323 315
260 273 282 278 281 289 286 278 277 275 277 265 264 258 249 252 248 247 248 262 282 278 262 266 292 306 317 324 318 316 319 317 315 313 316 319 326 328 327 327 328 328 327
262 265 270 275 282 282 277 262 262 269 271 277 276 273 265 264 258 252 251 241 244 272 274 264 275 304 316 315 317 321 321 317 321 320 321 325 328 328 325 326 326 325 324
261 262 266 266 273 273 265 255 260 258 256 268 264 269 276 284 279 265 249 247 233 238 261 263 252 282 300 309 310 318 312 314 316 320 320 322 324 324 326 329 328 327 326
256 253 253 257 260 264 260 253 259 254 251 264 264 259 268 271 268 270 257 247 245 234 254 272 272 281 269 281 313 317 311 311 308 314 315 316 318 318 326 330 330 330 326
255 250 247 248 252 255 247 240 251 251 246 252 255 252 265 265 259 258 252 250 248 237 239 263 277 276 269 280 297 300 319 318 307 310 313 312 314 319 325 324 323 320 320
258 254 245 245 248 249 246 240 237 241 240 243 241 238 247 242 251 248 244 247 253 253 239 246 265 271 279 290 296 301 306 306 311 313 315 318 321 322 323 321 318 317 316
250 251 249 247 247 246 243 240 236 237 240 242 240 237 239 234 239 240 242 241 243 247 247 251 257 264 269 278 281 289 303 304 304 316 321 321 317 317 319 319 317 315 311
251 247 248 252 247 242 238 233 232 234 236 243 246 244 243 242 243 243 246 239 234 239 244 253 258 262 259 263 269 261 279 298 292 286 310 310 310 309 314 313 313 311 311
255 250 247 249 251 250 249 242 233 231 232 235 245 250 251 250 254 256 256 249 237 237 237 239 248 252 257 250 249 262 280 310 295 294 308 295 286 285 296 303 306 314 318
249 252 252 248 252 256 255 252 242 231 230 235 238 244 251 249 252 253 260 261 255 250 241 232 237 241 238 232 232 250 254 264 265 284 301 279 274 274 289 296 303 311 319
247 249 251 248 252 258 257 255 249 237 232 234 234 234 239 247 244 238 241 249 254 257 250 235 229 234 230 224 221 233 239 261 274 272 242 258 280 279 300 301 302 313 325
252 249 250 247 249 258 256 255 250 236 237 239 236 231 232 239 246 242 234 243 254 262 258 236 229 235 243 249 237 204 225 273 282 271 237 250 286 304 299 290 304 316 319
249 252 255 249 247 254 257 255 247 232 238 243 241 236 235 238 244 242 228 229 244 249 238 237 236 247 258 262 240 206 207 226 253 263 237 244 274 328 310 287 283 297 307
Height
1517 1518 1518 1518 1518 1518 1518 1518 1519 1519 1519 1519 1519 1519 1519 1520 1520 1521 1521 1522 1522 1522 1523 1523 1524 1524 1524 1525 1525 1526 1526 1526 1527 1527 1527 1528 1528 1528 1528 1528 1527 1527 1527
1515 1515 1516 1516 1516 1516 1516 1516 1516 1516 1516 1516 1516 1516 1516 1517 1517 1517 1517 1518 1518 1519 1519 1520 1520 1520 1521 1521 1521 1522 1522 1522 1523 1523 1523 1524 1524 1524 1524 1524 1524 1524 1524
1513 1513 1513 1514 1514 1514 1513 1513 1513 1513 1513 1513 1513 1513 1513 1513 1513 1513 1514 1514 1514 1515 1515 1516 1516 1516 1517 1517 1517 1517 1518 1518 1519 1519 1519 1520 1520 1520 1520 1519 1520 1520 1520
1511 1511 1511 1511 1511 1511 1510 1510 1510 1510 1510 1510 1509 1509 1509 1509 1509 1509 1510 1510 1510 1511 1511 1511 1512 1512 1512 1512 1512 1513 1513 1513 1514 1515 1515 1515 1515 1516 1516 1516 1515 1515 1515
1508 1508 1508 1509 1509 1508 1508 1508 1507 1507 1507 1506 1506 1506 1506 1505 1506 1506 1506 1506 1507 1507 1507 1508 1508 1508 1508 1508 1508 1508 1509 1509 1509 1510 1510 1510 1511 1511 1511 1510 1511 1510 1511
1506 1506 1506 1506 1506 1505 1505 1505 1504 1504 1504 1503 1502 1502 1502 1502 1502 1502 1502 1503 1503 1503 1503 1504 1504 1504 1504 1504 1504 1504 1504 1504 1504 1505 1505 1505 1506 1506 1506 1505 1505 1505 1506
1504 1504 1503 1503 1503 1503 1502 1501 1501 1501 1501 1500 1499 1499 1499 1499 1498 1498 1499 1499 1500 1500 1500 1500 1500 1500 1500 1500 1500 1500 1500 1499 1500 1500 1500 1500 1500 1500 1500 1500 1500 1500 1500
1501 1501 1501 1500 1500 1499 1499 1498 1498 1498 1498 1498 1497 1496 1495 1496 1495 1495 1495 1496 1496 1496 1496 1496 1496 1496 1496 1496 1496 1496 1495 1495 1495 1495 1495 1495 1495 1495 1495 1495 1495 1495 1495
1499 1498 1498 1498 1498 1497 1496 1496 1495 1495 1495 1495 1495 1496 1495 1493 1492 1492 1492 1492 1492 1492 1493 1493 1492 1492 1492 1492 1492 1492 1492 1491 1491 1491 1490 1491 1491 1490 1490 1490 1490 1490 1490
1497 1496 1496 1496 1495 1494 1494 1493 1492 1492 1492 1492 1492 1493 1493 1492 1492 1489 1489 1489 1489 1489 1489 1489 1489 1489 1488 1488 1488 1488 1488 1487 1487 1487 1486 1486 1486 1486 1486 1485 1485 1485 1485
1494 1494 1493 1493 1492 1491 1491 1490 1489 1489 1489 1489 1489 1489 1489 1489 1489 1488 1486 1486 1486 1486 1486 1485 1485 1485 1485 1484 1484 1484 1484 1483 1483 1482 1482 1482 1482 1482 1481 1481 1481 1480 1480
1492 1491 1490 1490 1489 1488 1488 1487 1487 1486 1486 1486 1486 1486 1486 1486 1485 1485 1484 1482 1482 1482 1482 1481 1481 1481 1481 1480 1480 1480 1479 1479 1478 1478 1478 1477 1477 1477 1477 1476 1476 1475 1475
1489 1488 1487 1487 1486 1485 1485 1484 1484 1484 1483 1483 1483 1482 1482 1482 1482 1481 1481 1479 1479 1478 1478 1477 1477 1477 1477 1476 1476 1475 1475 1475 1474 1474 1473 1473 1472 1472 1472 1471 1471 1470 1469
1486 1485 1484 1484 1483 1482 1482 1481 1481 1480 1480 1480 1479 1479 1478 1478 1478 1477 1477 1477 1475 1474 1474 1474 1473 1473 1473 1473 1472 1471 1471 1470 1470 1469 1469 1468 1468 1467 1467 1466 1466 1465 1464
1482 1481 1481 1480 1480 1479 1478 1478 1478 1477 1477 1476 1475 1475 1474 1474 1474 1474 1473 1474 1474 1471 1470 1470 1470 1469 1469 1468 1468 1468 1467 1467 1466 1465 1464 1464 1463 1462 1462 1462 1461 1460 1459
1479 1478 1477 1477 1476 1476 1476 1475 1474 1473 1473 1472 1472 1471 1471 1470 1470 1470 1470 1469 1469 1469 1467 1466 1466 1466 1465 1465 1464 1464 1463 1463 1462 1461 1460 1459 1459 1458 1457 1457 1456 1455 1455
1475 1474 1474 1473 1473 1472 1472 1471 1470 1469 1469 1468 1468 1467 1467 1466 1466 1465 1465 1465 1465 1464 1463 1462 1462 1461 1461 1461 1460 1460 1459 1458 1458 1457 1456 1455 1454 1453 1453 1452 1451 1450 1450
1471 1470 1470 1469 1468 1468 1468 1467 1466 1465 1464 1464 1464 1463 1463 1462 1462 1461 1461 1460 1460 1460 1459 1458 1457 1457 1457 1457 1456 1455 1455 1454 1453 1452 1451 1450 1450 1449 1448 1447 1446 1445 1444
1467 1466 1465 1465 1464 1464 1463 1462 1462 1461 1460 1460 1459 1459 1458 1458 1457 1457 1456 1456 1455 1455 1454 1453 1452 1453 1452 1452 1451 1451 1450 1450 1449 1448 1447 1446 1445 1444 1443 1442 1441 1440 1439
1463 1462 1461 1460 1460 1459 1458 1458 1457 1456 1456 1455 1455 1455 1454 1453 1453 1452 1452 1451 1451 1450 1450 1449 1448 1448 1448 1448 1447 1446 1446 1445 1444 1443 1442 1442 1441 1439 1438 1437 1436 1435 1434
1458 1457 1457 1456 1455 1454 1454 1453 1452 1452 1451 1451 1450 1450 1449 1449 1448 1448 1447 1447 1446 1446 1445 1445 1444 1443 1443 1443 1443 1442 1441 1440 1439 1439 1438 1437 1436 1435 1434 1432 1431 1430 1429
1454 1453 1452 1451 1450 1450 1449 1448 1448 1447 1446 1446 1445 1445 1445 1444 1444 1443 1443 1442 1442 1441 1440 1440 1440 1439 1439 1439 1439 1438 1437 1436 1434 1435 1433 1432 1432 1430 1429 1428 1426 1425 1423
1449 1448 1447 1446 1445 1445 1444 1443 1443 1442 1441 1441 1440 1440 1439 1439 1439 1438 1438 1437 1437 1436 1436 1436 1435 1435 1435 1435 1434 1433 1433 1432 1431 1430 1428 1426 1426 1425 1424 1422 1421 1420 1419
1443 1442 1442 1441 1440 1439 1439 1438 1438 1437 1436 1436 1435 1435 1434 1434 1434 1433 1433 1432 1432 1432 1432 1431 1431 1431 1431 1431 1430 1430 1428 1427 1427 1426 1424 1422 1420 1419 1419 1417 1416 1415 1414
1438 1437 1436 1435 1434 1434 1434 1433 1432 1431 1430 1430 1430 1430 1429 1429 1429 1428 1428 1427 1427 1427 1427 1427 1426 1426 1426 1426 1426 1425 1424 1423 1422 1421 1420 1418 1416 1414 1413 1412 1411 1410 1409
1432 1431 1430 1430 1429 1428 1428 1427 1427 1425 1425 1424 1424 1424 1424 1423 1423 1423 1422 1422 1422 1422 1422 1422 1421 1421 1421 1421 1421 1421 1420 1419 1418 1417 1416 1415 1413 1411 1408 1406 1406 1405 1404